This is the latest recevied weather packets stored in our database for station/object DO2MIB-1. If no packets are shown the sender has not sent any weather packets the latest 10 day(s).
| Time | Temp. | Humidity | Pressure | Rain* | Wind** | Luminosity | Snow |
|---|---|---|---|---|---|---|---|
| 1778291176 | 23.89° C | 28% | 0 hPa | - | 0 m/s | - | - |
| 1778290911 | 23.89° C | 28% | 0 hPa | - | 0 m/s | - | - |
| 1778290696 | 23.89° C | 29% | 0 hPa | - | 0 m/s | - | - |
| 1778290630 | 23.33° C | 28% | 0 hPa | - | 0 m/s | - | - |
| 1778290580 | 24.44° C | 32% | 0 hPa | - | 0 m/s | - | - |
| 1778290530 | 21.11° C | 31% | 0 hPa | - | 0 m/s | - | - |
| 1778290381 | 21.11° C | 29% | 0 hPa | - | 0 m/s | - | - |
| 1778289968 | 23.33° C | 30% | 0 hPa | - | 0 m/s | - | - |
| 1778289918 | 24.44° C | 31% | 0 hPa | - | 0 m/s | - | - |
| 1778289885 | 24.44° C | 30% | 0 hPa | - | 0 m/s | - | - |
| 1778289570 | 21.67° C | 30% | 0 hPa | - | 0 m/s | - | - |
| 1778289554 | 24.44° C | 30% | 0 hPa | - | 0 m/s | - | - |
| 1778289488 | 23.89° C | 30% | 0 hPa | - | 0 m/s | - | - |
| 1778289388 | 21.11° C | 30% | 0 hPa | - | 0 m/s | - | - |
| 1778289190 | 23.89° C | 31% | 0 hPa | - | 0 m/s | - | - |
| 1778289107 | 24.44° C | 31% | 0 hPa | - | 0 m/s | - | - |
| 1778288958 | 24.44° C | 30% | 0 hPa | - | 0 m/s | - | - |
| 1778288594 | 24.44° C | 29% | 0 hPa | - | 0 m/s | - | - |
| 1778288280 | 22.22° C | 29% | 0 hPa | - | 0 m/s | - | - |
| 1778287998 | 23.89° C | 30% | 0 hPa | - | 0 m/s | - | - |
| 1778287932 | 24.44° C | 30% | 0 hPa | - | 0 m/s | - | - |
| 1778287800 | 21.67° C | 29% | 0 hPa | - | 0 m/s | - | - |
| 1778287750 | 23.89° C | 28% | 0 hPa | - | 0 m/s | - | - |
| 1778287601 | 24.44° C | 31% | 0 hPa | - | 0 m/s | - | - |
| 1778287468 | 21.67° C | 31% | 0 hPa | - | 0 m/s | - | - |
* Rain since midnight (hover to see other rain measurements)
** Current wind speed in m/s (hover to see current wind gust speed)